Date,TemperatureHighF,TemperatureAvgF,TemperatureLowF,DewpointHighF,DewpointAvgF,DewpointLowF,HumidityHigh,HumidityAvg,HumidityLow,PressureMaxIn,PressureMinIn,WindSpeedMaxMPH,WindSpeedAvgMPH,GustSpeedMaxMPH,PrecipitationSumIn
2013-1-1,31.5,24.5,14.2,31.2,22.2,11.9,99,91,77,30.22,30.10,7,2,11,0.00
2013-1-2,21.7,13.3,5.4,12.1,5.9,1.8,92,73,45,30.31,30.20,4,1,9,0.00
2013-1-3,28.8,22.0,13.5,24.9,15.5,4.5,86,76,61,30.34,30.22,11,4,18,0.00
2013-1-4,28.2,21.5,14.4,20.1,15.5,11.0,89,78,67,30.37,30.31,12,5,23,0.00
2013-1-5,35.6,24.4,18.7,26.6,20.5,16.8,94,85,69,30.37,30.25,7,2,12,0.00
2013-1-6,35.2,26.5,23.7,31.8,22.8,19.2,91,85,81,30.40,30.05,14,6,25,0.00
2013-1-7,34.7,26.1,15.3,26.1,21.6,13.9,97,84,69,30.48,30.26,11,3,21,0.00
2013-1-8,41.9,31.6,22.1,29.6,25.5,19.6,92,79,59,30.32,30.24,7,3,12,0.00
2013-1-9,45.5,40.1,32.2,37.9,34.1,27.6,91,79,68,30.56,30.20,11,4,21,0.01
2013-1-10,45.0,35.0,27.1,41.9,30.6,24.2,99,84,68,30.57,30.09,11,4,19,0.05
2013-1-11,59.7,52.9,45.0,54.7,49.0,41.9,99,87,67,30.09,29.87,14,5,24,0.74
2013-1-12,63.7,54.1,48.4,55.4,51.2,45.9,99,90,69,30.05,29.79,9,2,17,1.15
2013-1-13,53.8,36.5,21.7,53.5,35.9,18.5,99,97,86,30.26,29.73,12,4,19,1.09
2013-1-14,21.9,19.0,15.6,18.9,14.8,11.7,90,83,75,30.50,30.25,0,0,0,0.00
2013-1-15,29.5,23.9,18.0,22.4,18.4,16.0,93,80,61,30.45,30.15,0,0,0,0.01
2013-1-16,35.4,28.4,21.6,25.4,22.2,18.8,96,78,53,30.16,30.00,12,2,18,0.00
2013-1-17,37.6,30.3,21.7,30.1,23.5,14.8,92,76,55,30.46,30.12,11,3,16,0.00
2013-1-18,39.0,29.5,19.2,24.1,19.4,14.4,86,67,46,30.52,30.16,11,4,24,0.00
2013-1-19,52.2,43.2,37.8,36.0,28.6,22.7,77,57,45,30.17,29.91,14,6,30,0.00
2013-1-20,43.0,25.6,19.8,35.2,13.6,7.4,77,60,49,30.32,29.94,23,8,42,0.00
2013-1-21,20.5,13.8,6.8,11.9,4.7,-4.9,91,67,48,30.30,30.17,21,9,29,0.00
2013-1-22,14.5,8.3,2.7,-1.4,-2.9,-4.6,76,60,44,30.43,30.30,16,7,25,0.00
2013-1-23,21.2,15.4,9.3,14.3,5.0,-1.8,80,63,43,30.39,30.15,13,3,24,0.00
2013-1-24,22.1,17.1,9.9,13.2,6.8,-0.2,85,65,41,30.64,30.20,9,4,15,0.00
2013-1-25,25.3,21.7,17.2,20.1,15.3,6.8,92,77,56,30.46,30.08,9,4,15,0.00
2013-1-26,28.6,21.3,15.6,17.8,14.4,10.6,86,75,58,30.48,30.14,8,2,14,0.00
2013-1-27,37.0,26.3,16.5,36.6,21.8,12.8,99,83,70,30.47,30.11,11,4,17,0.21
2013-1-28,51.6,46.9,37.0,51.4,46.5,36.8,99,98,94,30.14,30.01,11,4,21,0.08
2013-1-29,62.2,55.5,48.6,58.5,54.2,48.3,99,95,87,30.04,29.49,16,6,27,0.01
2013-1-30,63.3,46.3,26.6,60.3,44.3,23.3,99,93,80,29.65,29.32,20,8,34,0.64
2013-1-31,26.6,20.5,9.0,23.6,14.1,0.8,93,76,62,30.14,29.65,21,12,35,0.00
2013-2-1,15.3,9.5,3.6,7.7,1.6,-3.0,78,70,61,30.44,30.14,17,7,28,0.00
2013-2-2,26.1,21.4,15.3,24.3,17.9,7.6,97,86,70,30.31,30.03,11,4,18,0.00
2013-2-3,22.6,16.7,10.4,20.0,12.5,7.0,91,83,77,30.14,30.00,14,5,24,0.00
2013-2-4,37.2,27.4,19.0,29.5,21.3,13.8,89,78,66,30.13,29.85,8,2,16,0.00
2013-2-5,35.8,27.5,19.8,31.8,24.2,18.6,96,87,72,30.08,29.88,13,3,17,0.00
2013-2-6,39.4,31.8,28.2,28.3,23.4,19.6,88,72,51,30.31,30.08,10,3,14,0.00
2013-2-7,53.6,40.3,30.0,41.3,31.8,26.4,99,74,44,30.25,29.86,8,3,15,0.13
2013-2-8,40.5,33.4,28.9,40.2,29.1,20.9,99,85,68,30.41,29.87,13,6,22,0.01
2013-2-9,38.8,30.1,21.0,26.4,22.5,19.1,95,74,52,30.46,30.23,11,3,15,0.00
2013-2-10,49.5,41.3,31.5,48.8,34.8,22.8,99,78,63,30.23,29.75,15,5,30,0.06
2013-2-11,49.6,38.6,30.9,49.0,31.1,23.7,99,75,61,30.09,29.73,19,9,37,0.00
2013-2-12,41.9,32.1,27.1,31.1,26.4,22.5,93,80,62,30.18,30.00,13,4,19,0.00
2013-2-13,45.1,32.5,25.3,29.5,26.3,23.9,96,79,51,30.00,29.83,8,2,13,0.00
2013-2-14,47.7,38.2,33.4,36.8,32.8,28.3,98,82,65,30.04,29.84,17,5,27,0.00
2013-2-15,34.2,29.8,20.8,30.4,25.2,16.2,95,83,60,30.22,30.03,10,3,16,0.00
2013-2-16,24.3,20.9,17.1,20.5,12.3,5.0,90,70,49,30.19,30.13,14,6,24,0.00
2013-2-17,32.5,20.8,9.3,14.2,9.5,3.5,90,64,33,30.28,30.17,7,2,11,0.00
2013-2-18,57.0,39.4,24.4,42.8,26.0,12.2,92,59,41,30.20,29.64,20,6,33,0.08
2013-2-19,45.0,24.8,18.5,43.8,18.7,9.4,99,77,63,30.17,29.62,24,13,40,0.07
2013-2-20,22.8,17.2,9.9,13.0,8.6,3.3,78,69,58,30.37,30.17,21,6,28,0.00
2013-2-21,27.7,24.0,18.7,23.3,17.6,13.0,96,76,66,30.39,30.08,14,5,29,0.00
2013-2-22,35.4,32.1,25.0,35.2,31.0,22.9,99,96,88,30.09,29.91,15,4,24,0.06
2013-2-23,31.8,28.1,23.2,28.9,22.4,20.6,92,79,68,30.05,29.99,11,5,20,0.00
2013-2-24,38.3,29.0,20.7,24.2,21.3,18.3,92,74,50,30.21,30.02,10,3,14,0.00
2013-2-25,44.1,32.7,23.9,28.5,24.8,21.0,93,74,48,30.23,29.98,11,3,17,0.00
2013-2-26,39.0,34.0,31.6,38.8,31.6,25.2,99,91,73,29.98,29.47,14,3,22,0.63
2013-2-27,39.9,34.3,30.6,39.7,33.6,30.1,99,97,88,29.74,29.53,13,6,24,0.05
2013-2-28,38.3,33.5,30.6,34.5,32.1,30.1,99,95,81,30.03,29.71,11,6,19,0.05
2013-3-1,33.6,31.2,27.9,31.6,28.2,21.0,99,89,75,30.14,30.01,6,3,12,0.01
2013-3-2,31.3,27.5,24.4,23.6,18.6,16.4,79,69,56,30.16,30.11,8,4,15,0.00
2013-3-3,32.7,27.2,22.1,22.5,19.6,15.5,89,74,49,30.16,30.10,9,4,14,0.00
2013-3-4,37.8,29.0,17.8,30.1,20.6,15.1,93,72,47,30.20,30.04,8,3,14,0.00
2013-3-5,35.1,32.1,26.8,32.7,30.8,26.6,99,95,86,30.07,29.73,11,4,22,0.01
2013-3-6,34.7,29.7,26.1,30.0,27.6,25.1,99,92,74,30.31,29.82,10,2,15,0.00
2013-3-7,37.0,32.4,28.8,29.9,27.9,24.0,98,84,71,30.45,30.30,8,3,11,0.13
2013-3-8,41.0,31.5,21.0,26.7,22.8,18.8,93,72,48,30.54,30.42,6,2,11,0.00
2013-3-9,50.4,40.1,29.5,35.4,29.4,23.2,83,66,50,30.43,30.03,11,5,16,0.00
2013-3-10,64.8,55.7,48.7,39.4,34.6,30.5,58,46,28,30.03,29.81,12,6,26,0.00
2013-3-11,56.8,45.6,33.1,50.8,41.7,30.4,99,88,50,29.91,29.67,17,6,30,0.18
2013-3-12,40.3,33.6,30.6,32.3,27.3,22.9,99,79,51,30.08,29.91,16,7,26,0.00
2013-3-13,31.6,28.2,24.8,29.7,19.7,13.2,95,71,51,30.37,30.06,17,8,24,0.00
2013-3-14,41.7,30.5,19.8,28.8,18.8,5.8,88,65,24,30.39,30.20,9,3,14,0.00
2013-3-15,49.6,38.5,29.3,40.2,33.3,28.8,99,83,57,30.20,29.84,7,2,13,0.01
2013-3-16,43.7,38.8,32.9,41.3,37.0,28.6,99,94,83,30.12,29.68,9,3,15,0.00
2013-3-17,37.4,32.3,28.9,29.5,24.0,19.5,88,72,56,30.23,30.06,11,5,20,0.00
2013-3-18,41.2,34.9,30.6,40.9,33.9,26.0,99,96,79,30.06,29.62,15,4,27,0.11
2013-3-19,39.2,29.9,23.7,26.8,15.5,9.2,81,56,29,30.15,29.88,23,11,40,0.00
2013-3-20,30.7,25.9,21.7,18.2,11.4,2.7,73,55,34,30.14,30.06,17,8,29,0.00
2013-3-21,34.2,23.8,12.4,15.7,10.6,6.0,89,59,32,30.09,30.02,12,5,21,0.00
2013-3-22,43.7,30.4,18.3,19.7,14.1,8.7,85,54,24,30.12,30.05,9,2,14,0.00
2013-3-23,46.9,35.8,28.2,24.7,18.4,11.6,70,51,24,30.14,29.99,7,2,12,0.00
2013-3-24,33.6,30.7,27.9,31.5,26.7,22.3,99,85,68,30.01,29.55,12,4,23,0.05
2013-3-25,34.9,30.6,27.0,32.6,28.8,26.7,99,93,81,30.04,29.58,10,6,14,0.04
2013-3-26,38.8,33.5,30.6,31.0,28.8,24.9,99,84,58,30.29,30.04,11,5,20,0.00
2013-3-27,42.6,34.0,26.1,26.8,23.5,17.6,88,67,42,30.36,30.28,14,5,23,0.00
2013-3-28,46.2,36.5,26.8,26.4,22.9,18.7,86,60,35,30.42,30.35,10,2,14,0.00
2013-3-29,54.1,41.2,28.8,29.6,26.6,23.0,86,59,32,30.38,30.28,10,1,16,0.00
2013-3-30,58.5,45.3,28.4,33.4,27.3,20.2,88,54,24,30.30,29.99,8,2,15,0.00
2013-3-31,61.0,49.5,43.9,45.6,37.6,27.3,99,66,29,29.99,29.81,14,5,26,0.04
2013-4-1,43.9,37.6,28.9,33.1,18.2,3.3,75,48,20,30.21,29.89,14,5,21,0.00
2013-4-2,44.2,32.8,23.0,18.7,11.7,-1.7,74,46,15,30.34,30.20,14,3,21,0.00
2013-4-3,47.8,35.7,22.1,16.7,10.2,2.7,66,37,16,30.50,30.33,9,2,15,0.00
2013-4-4,58.8,43.3,29.3,20.3,11.1,-1.2,59,32,10,30.40,30.05,8,2,11,0.00
2013-4-5,57.2,46.2,36.9,29.0,18.5,0.3,63,36,10,30.23,30.03,10,3,16,0.00
2013-4-6,67.1,51.7,35.8,30.8,23.5,18.1,62,36,17,30.22,29.86,14,6,26,0.00
2013-4-7,70.3,62.0,52.2,42.5,33.8,25.6,57,36,19,30.03,29.83,15,6,27,0.00
2013-4-8,73.6,62.8,52.3,53.2,49.3,34.3,90,63,44,30.04,29.88,15,4,31,0.00
2013-4-9,81.7,67.9,52.5,55.2,52.2,46.0,98,61,30,30.07,29.93,16,3,30,0.00
2013-4-10,79.2,67.3,52.0,64.3,58.4,51.7,99,75,51,29.98,29.84,14,5,33,1.43
2013-4-11,67.6,60.0,50.9,63.1,58.6,50.5,99,95,78,29.86,29.62,17,4,28,1.06
2013-4-12,50.7,41.5,37.6,50.5,33.8,27.6,99,75,55,29.97,29.65,15,8,27,0.09
2013-4-13,46.0,41.5,38.1,35.3,31.4,26.1,84,68,46,30.08,29.97,17,6,25,0.00
2013-4-14,70.7,54.6,40.5,42.1,36.7,32.3,76,54,28,30.10,29.90,11,4,17,0.00
2013-4-15,67.5,61.2,52.9,55.0,48.9,39.5,76,64,45,30.03,29.90,9,4,18,0.01
2013-4-16,62.1,52.3,48.9,53.0,49.5,46.8,99,90,69,30.28,29.95,12,3,17,0.72
2013-4-17,71.8,56.1,46.0,66.5,52.6,43.6,99,88,76,30.29,29.95,13,4,21,0.20
2013-4-18,74.1,63.2,53.8,64.4,60.3,53.4,99,91,61,29.99,29.64,18,5,33,2.19
2013-4-19,59.9,40.2,33.3,59.6,34.6,26.1,99,81,59,30.01,29.61,19,9,36,0.86
2013-4-20,46.0,38.1,32.2,34.7,25.6,17.5,99,64,33,30.48,30.00,16,5,27,0.01
2013-4-21,53.4,41.3,29.3,29.9,21.5,12.4,72,48,22,30.60,30.44,11,3,15,0.00
2013-4-22,69.1,52.3,34.0,34.1,26.7,12.4,91,45,12,30.44,30.18,9,2,13,0.00
2013-4-23,68.2,57.6,48.7,58.2,45.0,32.8,99,66,42,30.19,29.87,10,3,20,0.69
2013-4-24,56.8,42.4,36.9,56.6,37.7,27.6,99,85,50,30.27,29.86,12,5,22,0.80
2013-4-25,51.8,44.0,36.1,36.0,28.4,13.1,83,58,22,30.44,30.25,18,5,29,0.01
2013-4-26,63.7,49.0,34.5,33.9,29.4,23.5,81,51,22,30.50,30.39,8,2,14,0.00
2013-4-27,68.0,55.3,42.4,52.1,35.1,20.4,92,50,20,30.41,30.08,12,3,21,0.06
2013-4-28,59.7,56.2,53.1,58.7,55.6,51.2,99,98,89,30.09,29.91,6,2,10,0.58
2013-4-29,70.2,60.4,55.0,56.4,53.4,48.1,99,80,48,30.06,29.95,8,3,14,0.01
2013-4-30,80.4,66.3,52.5,55.6,52.5,49.9,91,64,38,30.11,30.00,11,4,17,0.00
2013-5-1,85.5,71.8,53.8,54.4,48.6,39.0,87,49,20,30.23,30.10,7,2,13,0.00
2013-5-2,78.3,70.1,61.2,52.7,49.9,44.1,70,50,30,30.26,30.14,9,3,20,0.00
2013-5-3,77.5,68.7,61.7,56.4,51.0,31.7,73,55,26,30.15,29.99,12,4,19,0.00
2013-5-4,72.3,63.8,57.9,51.1,39.0,27.2,77,42,20,30.08,30.01,9,4,18,0.00
2013-5-5,63.9,58.1,52.9,54.9,49.0,40.7,99,73,44,30.07,30.02,8,2,16,0.00
2013-5-6,70.0,62.1,54.5,52.7,48.9,42.9,82,62,49,30.05,29.99,10,2,17,0.00
2013-5-7,75.6,66.1,56.8,55.0,50.8,44.9,88,61,34,30.08,30.01,7,1,13,0.00
2013-5-8,80.8,68.0,54.1,57.9,49.8,38.8,97,58,24,30.10,30.02,6,1,11,0.00
2013-5-9,80.8,66.1,59.0,60.0,51.8,32.3,99,65,18,30.08,29.96,12,2,23,0.59
2013-5-10,68.9,60.7,48.0,64.1,58.2,45.2,99,92,73,29.99,29.88,11,3,17,0.17
2013-5-11,63.1,49.1,43.3,52.5,43.8,36.1,99,83,48,30.09,29.92,14,3,21,0.00
2013-5-12,55.2,46.1,37.6,36.3,26.5,11.2,84,51,17,30.19,30.08,13,3,23,0.00
2013-5-13,64.9,51.5,37.6,32.1,20.0,1.6,74,37,10,30.26,30.16,11,2,21,0.00
2013-5-14,85.5,67.8,50.2,56.6,40.6,27.5,54,38,25,30.17,29.86,11,4,24,0.00
2013-5-15,86.7,77.4,69.8,61.1,50.7,40.7,63,41,23,29.93,29.85,14,6,26,0.00
2013-5-16,84.2,72.7,64.6,65.0,55.0,38.0,95,59,22,30.04,29.90,11,1,18,0.02
2013-5-17,81.3,68.1,60.3,67.2,62.1,54.5,99,84,43,30.13,30.04,10,1,14,0.58
2013-5-18,80.1,69.3,62.1,65.8,62.6,57.1,99,82,46,30.16,30.05,6,1,11,0.00
2013-5-19,86.9,74.2,61.2,67.9,62.9,56.0,99,72,35,30.07,29.93,5,1,10,0.00
2013-5-20,86.9,77.9,70.7,71.2,65.7,60.1,99,68,43,30.02,29.90,8,3,18,0.00
2013-5-21,86.5,74.9,63.7,66.3,60.6,52.9,93,65,32,29.95,29.83,14,4,29,0.05
2013-5-22,77.2,68.9,61.2,64.8,60.2,53.2,98,75,50,29.87,29.78,11,3,23,0.27
2013-5-23,64.6,58.0,48.2,61.3,53.7,44.0,99,86,67,30.23,29.86,11,3,21,0.01
2013-5-24,67.3,53.6,42.8,44.2,35.9,16.1,93,59,14,30.43,30.23,8,2,14,0.00
2013-5-25,65.8,55.2,45.1,45.4,36.2,24.5,76,52,22,30.45,30.29,5,1,11,0.00
2013-5-26,71.8,59.8,46.9,52.3,42.1,35.0,79,54,28,30.37,30.25,4,1,10,0.04
2013-5-27,76.3,62.6,53.6,68.8,57.4,48.9,99,84,59,30.26,29.97,8,3,15,1.57
2013-5-28,82.2,72.7,63.3,67.2,64.1,61.2,99,77,51,30.03,29.95,9,3,22,0.01
2013-5-29,87.1,77.5,70.0,63.5,58.1,51.7,72,53,31,30.10,30.00,11,3,21,0.00
2013-5-30,88.7,77.8,69.3,68.5,62.3,58.7,79,60,37,30.14,30.01,11,3,25,0.04
2013-5-31,75.9,72.2,66.2,71.1,66.6,61.0,99,83,69,30.08,29.93,9,3,16,0.51
2013-6-1,76.6,69.8,63.7,69.7,64.5,60.7,99,84,66,29.99,29.84,14,3,27,0.78
2013-6-2,71.1,63.5,55.4,64.0,58.5,48.5,99,84,65,30.08,29.86,10,3,20,0.12
2013-6-3,70.3,57.8,45.7,49.3,41.7,29.2,91,60,23,30.17,30.07,7,2,11,0.00
2013-6-4,76.1,61.6,47.7,48.7,41.4,28.7,90,54,18,30.23,30.14,8,2,14,0.00
2013-6-6,76.5,71.8,65.8,56.8,54.4,53.2,67,55,48,29.92,29.88,4,1,7,0.00
2013-6-7,74.8,65.9,58.5,57.0,53.4,49.3,91,66,42,29.98,29.91,6,1,14,0.00
2013-6-8,80.2,68.3,57.7,58.8,52.0,46.6,85,59,35,30.10,29.97,6,1,10,0.00
2013-6-9,84.7,72.7,62.8,67.2,57.6,46.0,93,63,27,30.11,29.92,7,2,16,0.01
2013-6-10,77.9,70.0,64.0,68.3,63.3,56.9,99,82,49,29.93,29.85,8,3,17,0.89
2013-6-11,86.4,72.8,63.1,70.0,64.3,56.4,99,79,37,30.04,29.93,8,2,14,0.12
2013-6-12,91.8,80.1,69.4,73.1,69.4,60.2,99,72,46,30.00,29.74,11,2,18,0.05
2013-6-13,78.6,70.2,62.1,70.4,59.9,45.9,99,74,32,30.05,29.70,17,3,30,1.65
2013-6-14,81.7,68.0,56.7,61.0,55.3,48.4,97,68,33,30.16,30.03,5,1,9,0.00
2013-6-15,80.4,70.9,61.2,64.4,58.6,54.3,90,67,42,30.18,30.01,4,1,13,0.00
2013-6-16,80.4,73.1,66.6,68.5,64.5,61.6,99,75,57,30.06,29.99,14,3,24,0.21
2013-6-17,89.4,76.7,66.6,72.1,62.5,46.4,99,68,24,30.04,29.95,5,1,9,0.00
2013-6-18,83.1,74.3,65.3,67.2,60.8,53.1,95,65,39,30.09,29.95,8,2,13,0.00
2013-6-19,82.2,70.1,59.0,58.6,52.9,45.6,95,58,29,30.20,30.09,6,2,11,0.00
2013-6-20,89.8,75.6,61.3,59.3,54.1,45.6,80,51,22,30.26,30.19,5,1,9,0.00
2013-6-21,90.5,77.6,66.2,63.4,56.4,45.1,71,52,21,30.27,30.10,9,1,17,0.00
2013-6-22,89.6,77.7,70.7,69.4,65.1,57.6,89,66,35,30.21,30.10,10,2,19,0.00
2013-6-23,90.1,75.3,67.1,69.8,66.1,57.4,99,76,35,30.18,30.10,9,2,21,0.00
2013-6-24,89.8,78.0,69.3,69.9,66.1,58.5,98,70,36,30.20,30.06,12,2,30,0.01
2013-6-25,91.4,79.9,70.2,71.2,67.7,61.6,97,69,39,30.09,29.93,14,3,29,0.05
2013-6-26,86.7,75.7,68.2,71.7,67.6,62.5,99,78,49,30.00,29.81,9,2,19,0.09
2013-6-27,86.9,76.4,68.9,73.2,68.8,65.2,99,79,50,29.87,29.77,10,2,18,0.18
2013-6-28,83.8,74.8,67.3,68.6,61.7,52.5,89,66,36,29.78,29.67,11,3,20,0.04
2013-6-29,72.5,66.0,62.6,67.8,64.2,61.5,99,94,72,29.77,29.66,4,1,11,0.63
2013-6-30,74.7,67.4,61.5,66.1,63.2,58.6,99,87,65,29.98,29.76,9,2,17,0.48
2013-7-1,72.1,67.4,63.9,63.2,60.5,57.9,91,79,70,30.06,29.95,8,3,15,0.00
2013-7-2,78.6,66.4,59.9,68.0,62.8,57.7,99,89,60,30.09,30.03,7,2,11,1.00
2013-7-3,83.5,71.2,61.2,70.6,62.4,56.6,99,77,42,30.17,30.07,9,2,17,0.01
2013-7-4,78.4,69.5,62.1,70.4,65.2,59.8,99,88,53,30.22,30.14,4,0,6,0.27
2013-7-5,83.3,73.8,65.8,71.0,66.1,62.1,99,79,50,30.21,30.13,4,1,8,0.00
2013-7-6,77.0,71.6,68.4,71.0,68.3,64.2,99,90,68,30.19,30.10,8,1,12,0.00
2013-7-7,85.1,73.8,64.8,69.2,65.9,59.8,99,79,43,30.17,30.09,6,1,11,0.00
2013-7-8,87.1,78.0,70.2,71.0,68.4,65.1,92,73,53,30.19,30.08,10,2,19,0.00
2013-7-9,90.1,81.7,75.9,74.1,71.1,69.1,82,71,51,30.13,30.02,8,3,15,0.00
2013-7-10,87.3,78.5,68.7,77.0,71.0,59.5,99,78,56,30.09,29.90,11,2,36,0.26
2013-7-11,79.9,69.7,60.6,60.0,55.1,48.4,84,62,34,30.14,30.04,9,2,15,0.00
2013-7-12,80.4,69.5,58.3,60.6,55.1,49.1,89,63,35,30.20,30.12,8,1,13,0.00
2013-7-13,84.7,72.9,60.4,66.2,61.1,57.2,93,69,44,30.23,30.17,8,2,14,0.00
2013-7-14,90.5,78.6,65.5,72.4,66.4,62.5,94,68,41,30.29,30.22,5,1,11,0.00
2013-7-15,92.3,81.9,72.1,72.8,69.3,63.7,97,69,39,30.38,30.28,6,1,11,0.00
2013-7-16,91.9,81.5,70.3,74.1,70.1,65.7,99,71,45,30.42,30.35,4,0,7,0.00
2013-7-17,94.3,82.6,71.4,73.9,70.4,64.9,98,70,40,30.42,30.27,7,1,9,0.00
2013-7-18,95.4,83.9,72.9,74.3,70.0,63.0,97,67,36,30.30,30.10,6,1,10,0.00
2013-7-19,92.7,83.6,75.4,74.8,70.7,66.5,92,67,43,30.12,29.94,10,3,21,0.00
2013-7-20,80.4,76.0,70.2,71.8,69.8,65.8,98,81,69,30.00,29.91,8,2,22,0.20
2013-7-21,86.9,76.5,67.3,74.2,68.7,65.3,99,79,49,30.06,29.96,4,1,9,0.00
2013-7-22,84.4,75.3,68.2,70.9,67.9,63.1,99,79,50,29.99,29.86,5,1,14,0.07
2013-7-23,86.0,75.2,62.1,72.2,66.2,54.5,97,76,46,29.98,29.83,11,3,19,0.00
2013-7-24,73.9,63.9,54.3,54.9,51.6,47.1,92,67,40,30.11,29.97,8,2,14,0.00
2013-7-25,78.4,65.6,52.5,55.6,51.5,47.0,97,64,33,30.19,30.10,7,1,12,0.00
2013-7-26,82.4,69.2,54.9,59.1,54.7,47.7,96,64,31,30.18,30.01,7,1,14,0.00
2013-7-27,77.0,69.5,58.6,66.7,57.5,46.9,98,69,39,30.02,29.92,11,3,20,0.05
2013-7-28,71.2,62.0,49.8,50.5,46.7,42.3,87,60,36,30.12,29.99,12,3,22,0.00
2013-7-29,78.8,66.3,55.6,55.5,51.2,46.2,86,61,37,30.26,30.11,8,2,13,0.00
2013-7-30,78.1,67.7,54.3,63.7,57.0,52.8,99,71,44,30.29,30.18,5,1,8,0.00
2013-7-31,75.2,69.2,64.9,69.9,66.4,62.2,99,91,80,30.18,30.01,6,1,12,0.14
2013-8-1,81.7,71.1,63.3,67.5,59.5,47.9,99,71,32,30.08,30.01,11,2,23,0.00
2013-8-2,84.4,70.4,57.6,62.5,57.8,53.1,91,67,41,30.07,29.99,13,2,23,0.00
2013-8-3,83.5,71.7,61.0,68.8,61.7,52.3,99,74,39,30.16,30.01,7,1,12,0.56
2013-8-4,79.0,66.5,54.3,57.2,52.6,46.7,91,64,33,30.26,30.15,5,1,11,0.00
2013-8-5,80.2,67.7,60.8,64.5,58.1,51.1,99,74,37,30.20,30.02,5,1,11,0.15
2013-8-6,81.5,71.5,63.0,69.0,64.5,60.7,96,79,61,30.05,29.97,4,1,12,0.00
2013-8-7,86.4,76.6,70.5,74.2,70.4,67.1,99,83,53,30.00,29.93,6,1,14,0.00
2013-8-8,77.4,72.6,67.6,74.1,70.7,67.4,99,94,82,30.04,29.98,5,2,10,0.02
2013-8-9,84.0,74.3,68.5,70.4,65.6,57.2,99,77,41,30.12,30.00,5,1,9,0.00
2013-8-10,86.2,75.6,67.6,65.8,64.2,60.0,92,70,43,30.19,30.11,7,1,12,0.00
2013-8-11,84.9,72.8,61.5,71.7,63.7,58.5,99,77,42,30.20,30.13,6,1,10,0.00
2013-8-12,86.9,74.3,63.9,68.2,64.3,58.2,99,74,40,30.17,29.96,7,1,11,0.00
2013-8-13,73.8,66.7,54.9,67.5,55.6,40.4,99,71,32,30.18,29.95,8,2,14,0.02
2013-8-14,71.6,58.7,47.7,48.7,45.9,40.1,95,66,33,30.29,30.17,7,1,13,0.00
2013-8-15,75.4,61.3,47.1,53.6,47.4,41.5,97,65,30,30.26,30.18,4,1,9,0.00
2013-8-16,75.2,64.9,55.8,56.2,52.1,47.1,89,66,38,30.26,30.19,4,1,8,0.01
2013-8-17,80.1,67.8,57.7,58.3,53.5,47.4,82,63,32,30.29,30.22,6,1,11,0.00
2013-8-18,84.7,70.7,56.7,64.0,56.5,49.4,99,66,31,30.27,30.17,5,1,8,0.00
2013-8-19,87.6,72.5,59.9,63.4,58.7,52.9,93,66,32,30.22,30.14,6,1,10,0.00
2013-8-20,89.1,74.9,61.7,65.3,60.5,52.9,98,66,30,30.25,30.15,6,1,11,0.00
2013-8-21,90.1,77.1,66.7,69.7,64.3,58.2,92,67,35,30.23,30.11,6,1,10,0.00
2013-8-22,80.4,73.3,68.4,71.9,66.7,64.4,95,80,63,30.19,30.08,5,1,12,0.13
2013-8-23,84.4,70.4,60.8,70.4,63.2,57.4,99,82,41,30.23,30.14,5,1,11,0.00
2013-8-24,85.8,70.6,55.9,60.8,52.7,29.0,99,61,14,30.36,30.23,4,1,10,0.00
2013-8-25,90.7,75.2,59.4,61.3,55.9,47.1,94,57,23,30.39,30.28,7,1,11,0.00
2013-8-26,89.6,77.4,65.5,72.5,63.1,56.4,83,63,40,30.32,30.15,9,2,16,0.00
2013-8-27,92.8,80.2,71.6,73.4,69.8,65.3,96,73,41,30.16,30.02,8,2,17,0.00
2013-8-28,90.5,80.8,73.4,73.3,69.7,65.2,96,70,50,30.07,29.98,9,3,19,0.00
2013-8-29,88.7,77.2,68.9,75.5,68.0,60.5,99,77,40,30.14,30.07,5,1,11,0.00
2013-8-30,93.6,78.9,65.1,71.7,66.6,60.4,99,71,36,30.08,29.88,8,1,11,0.00
2013-8-31,86.9,75.0,68.5,72.4,67.5,63.5,97,79,46,29.94,29.84,6,2,11,0.24
2013-9-1,84.2,74.3,68.4,72.2,69.5,68.1,99,86,62,29.90,29.85,7,1,12,0.09
2013-9-2,84.7,73.4,63.3,71.7,63.6,50.1,99,76,32,30.02,29.84,7,2,14,0.00
2013-9-3,76.1,63.3,50.9,59.1,52.5,48.8,99,71,41,30.15,30.01,6,1,11,0.00
2013-9-4,83.7,67.2,52.2,59.1,54.1,48.7,99,68,30,30.23,30.13,8,1,14,0.00
2013-9-5,84.6,70.4,59.5,60.7,57.0,48.2,93,65,37,30.28,30.19,5,1,10,0.00
2013-9-6,86.0,68.3,51.8,52.7,45.9,33.9,84,50,16,30.32,30.15,5,1,8,0.00
2013-9-7,89.4,74.7,62.8,62.7,56.3,49.7,70,54,30,30.16,30.01,8,2,16,0.00
2013-9-8,87.6,75.5,64.0,67.4,63.9,60.7,96,69,41,30.08,30.01,6,2,12,0.00
2013-9-9,94.1,78.0,65.5,70.9,65.9,62.0,98,71,35,30.08,29.99,8,2,15,0.00
2013-9-10,97.5,84.6,75.2,73.6,65.0,48.7,90,58,20,30.17,30.05,8,3,15,0.00
2013-9-11,95.7,82.8,72.9,72.0,61.3,47.9,90,54,20,30.20,30.07,10,2,24,0.00
2013-9-12,84.0,73.4,62.1,71.7,60.5,41.3,99,68,28,30.09,29.94,10,2,17,0.38
2013-9-13,68.0,58.4,49.8,52.3,43.4,34.2,92,61,29,30.19,30.06,9,2,16,0.00
2013-9-14,74.1,56.0,40.5,45.1,34.2,13.3,96,54,10,30.27,30.16,6,1,11,0.00
2013-9-15,77.9,60.7,48.9,58.2,43.9,31.2,97,60,19,30.20,30.07,8,2,14,0.22
2013-9-16,64.4,58.7,50.4,57.3,53.1,47.7,99,83,60,30.37,30.17,8,2,11,0.02
2013-9-17,74.5,59.3,45.9,51.0,47.4,42.7,99,70,33,30.40,30.22,6,2,11,0.00
2013-9-18,83.5,68.4,58.6,64.1,54.2,48.4,81,63,34,30.23,30.08,4,1,9,0.00
2013-9-19,83.7,71.4,64.2,72.5,67.3,64.0,99,88,55,30.14,29.98,7,2,14,1.91
2013-9-20,78.8,71.4,66.7,72.2,69.3,66.5,99,93,67,30.02,29.87,8,2,16,0.39
2013-9-21,72.1,61.7,50.7,66.5,50.2,36.5,99,71,28,29.99,29.84,11,2,20,0.06
2013-9-22,69.4,56.0,46.2,51.3,43.2,34.3,99,68,28,30.10,29.99,7,1,13,0.00
2013-9-23,71.8,56.9,43.3,46.8,42.5,35.7,98,64,28,30.19,30.09,6,2,12,0.00
2013-9-24,75.2,58.9,43.3,48.3,44.2,38.5,97,63,27,30.16,29.99,6,2,11,0.00
2013-9-25,78.3,62.6,49.1,51.5,45.5,35.1,93,59,22,30.02,29.95,6,1,11,0.00
2013-9-26,80.1,61.8,49.3,58.7,48.6,40.7,99,68,25,30.16,30.01,5,1,11,0.00
2013-9-27,82.9,64.3,48.4,51.5,41.9,19.6,93,53,10,30.25,30.16,6,1,9,0.00
2013-9-28,84.6,66.7,49.5,54.2,48.5,42.9,93,57,24,30.24,30.08,7,1,13,0.00
2013-9-29,65.5,62.2,55.2,63.1,59.0,53.8,99,90,66,30.10,30.05,7,1,11,0.26
2013-9-30,76.8,63.3,55.0,68.1,57.1,49.7,99,83,40,30.09,29.99,7,1,15,0.01
2013-10-1,76.3,66.3,60.3,65.8,61.1,58.5,99,85,54,30.13,30.05,8,2,13,0.00
2013-10-2,80.8,68.7,62.4,71.5,65.4,61.9,99,90,58,30.18,30.09,3,1,5,0.00
2013-10-3,83.1,72.3,64.9,71.0,65.0,59.9,99,80,47,30.12,30.01,11,2,17,0.01
2013-10-4,84.6,74.3,67.5,69.3,66.5,62.2,99,78,48,30.12,30.05,7,2,14,0.00
2013-10-5,77.5,70.8,66.2,73.2,69.3,65.9,99,95,79,30.10,29.93,7,2,14,0.69
2013-10-6,66.2,60.1,47.1,65.9,57.4,37.7,99,91,59,29.97,29.80,13,3,21,1.00
2013-10-7,64.2,51.1,44.4,46.9,43.0,38.0,99,76,40,30.21,29.88,11,3,19,0.06
2013-10-8,73.4,57.3,45.7,52.2,44.3,36.3,99,68,27,30.32,30.20,5,1,10,0.00
2013-10-9,76.1,59.2,43.5,48.7,42.4,34.2,93,59,22,30.32,30.22,5,1,11,0.00
2013-10-10,78.1,59.1,43.9,52.5,42.0,28.0,99,61,17,30.26,30.14,5,0,8,0.00
2013-10-11,81.1,60.8,44.1,50.9,43.1,31.2,96,60,19,30.19,30.08,4,0,8,0.00
2013-10-12,80.6,64.3,49.6,59.9,50.1,40.5,99,66,24,30.19,30.08,6,1,12,0.04
2013-10-13,72.0,61.4,48.9,61.7,41.4,22.6,91,54,16,30.42,30.18,8,2,14,0.00
2013-10-14,71.1,53.3,40.5,47.9,39.5,29.7,98,65,22,30.42,30.26,6,1,11,0.00
2013-10-15,66.0,58.1,48.2,64.0,55.3,41.9,99,91,72,30.26,29.96,6,2,12,0.01
2013-10-16,64.2,55.6,44.2,64.0,45.8,38.5,99,71,46,30.04,29.94,11,4,19,0.01
2013-10-17,51.6,46.3,41.2,50.1,42.7,38.8,99,88,70,30.03,29.93,11,2,21,0.12
2013-10-18,65.1,50.8,42.8,46.6,41.0,32.6,99,74,30,30.05,29.96,12,3,20,0.00
2013-10-19,53.2,45.2,40.8,42.4,36.6,27.0,99,75,37,30.03,29.93,11,2,19,0.26
2013-10-20,65.1,51.3,40.8,39.4,35.5,32.0,80,57,30,30.03,29.96,10,3,21,0.00
2013-10-21,57.7,49.1,38.5,46.6,39.5,24.6,88,70,56,30.06,29.95,9,4,16,0.00
2013-10-22,50.9,38.0,29.5,36.7,27.4,19.3,98,69,29,30.09,29.93,8,2,15,0.08
2013-10-23,45.9,38.2,32.5,38.0,31.6,22.0,99,79,39,30.09,29.90,13,3,21,0.22
2013-10-24,42.6,38.2,33.6,32.6,28.0,22.0,83,67,44,30.33,30.08,8,3,17,0.00
2013-10-25,49.5,37.5,27.9,27.6,22.2,14.9,82,57,26,30.48,30.28,11,3,16,0.00
2013-10-26,54.9,42.9,35.4,33.9,26.6,21.9,70,53,36,30.28,29.96,14,4,24,0.00
2013-10-27,56.8,42.5,31.1,31.9,27.0,19.0,88,60,23,30.17,30.09,9,1,13,0.00
2013-10-28,61.7,44.4,30.4,36.5,27.7,15.6,91,59,17,30.38,30.14,3,0,5,0.00
2013-10-29,58.3,45.8,35.1,42.3,36.7,30.5,99,73,41,30.42,30.26,4,1,8,0.00
2013-10-30,61.5,55.0,49.3,60.2,53.5,42.4,99,95,74,30.25,30.08,3,1,4,0.02
2013-10-31,84.4,66.7,55.6,70.4,61.1,55.3,99,86,45,29.89,29.27,17,4,22,2.04
2013-11-1,54.0,50.3,45.0,53.7,42.3,38.9,99,74,62,29.93,29.42,16,5,21,0.01
2013-11-2,52.9,46.0,42.4,44.0,40.2,34.1,99,82,50,30.42,29.91,11,4,18,0.00
2013-11-3,55.0,43.3,33.8,42.2,35.9,26.9,99,78,35,30.73,30.41,5,2,10,0.00
2013-11-4,54.7,47.3,40.3,39.5,35.5,31.7,81,65,45,30.74,30.60,6,2,12,0.00
2013-11-5,57.9,52.1,46.6,47.8,41.7,37.3,89,68,51,30.76,30.43,7,2,13,0.01
2013-11-6,57.7,52.2,41.7,55.5,45.6,37.7,99,80,53,30.44,30.12,12,5,21,0.18
2013-11-7,48.0,40.1,32.5,39.6,29.2,16.8,92,68,29,30.63,30.38,13,4,23,0.00
2013-11-8,52.3,39.1,29.1,32.1,27.4,20.6,95,67,29,30.73,30.46,6,2,14,0.00
2013-11-9,61.5,49.7,39.2,36.8,30.4,22.5,64,48,33,30.48,30.21,14,5,30,0.00
2013-11-10,48.7,40.8,34.5,34.6,28.0,24.1,75,61,39,30.72,30.38,11,4,19,0.00
2013-11-11,51.1,41.1,28.8,38.0,30.7,26.5,99,68,40,30.74,30.35,11,4,20,0.02
2013-11-12,34.5,28.7,23.5,26.7,19.8,16.2,92,70,50,31.14,30.74,8,3,14,0.02
2013-11-13,40.6,28.9,18.7,19.2,13.7,6.1,86,57,24,31.13,30.72,11,3,19,0.00
2013-11-14,55.2,40.8,29.5,17.4,9.9,-4.4,59,33,10,30.72,30.39,9,4,20,0.00
2013-11-15,53.4,44.5,39.0,36.4,20.4,11.3,78,39,22,30.42,30.32,9,3,18,0.00
2013-11-16,59.7,51.2,41.5,58.5,48.4,36.4,99,90,78,30.37,29.95,13,6,28,0.00
2013-11-17,63.9,58.3,46.6,63.4,54.1,38.0,99,87,53,30.00,29.40,25,9,45,0.83
2013-11-18,47.3,41.9,33.6,38.2,30.8,24.7,85,65,43,30.56,29.97,20,9,35,0.00
2013-11-19,41.7,34.2,28.0,26.6,24.8,22.7,82,69,50,30.76,30.56,7,2,11,0.00
2013-11-20,47.3,36.9,26.6,30.8,26.2,22.3,87,67,44,30.75,30.53,10,3,14,0.00
2013-11-21,49.1,46.2,42.8,48.7,41.9,29.2,99,86,52,30.66,30.50,6,2,11,0.47
2013-11-22,49.5,42.5,31.5,49.2,40.4,28.8,99,92,77,30.88,30.46,10,4,17,0.12
2013-11-23,31.5,26.6,21.0,28.9,18.5,9.1,91,72,48,31.10,30.80,14,6,24,0.00
2013-11-24,27.0,20.3,14.2,14.1,7.5,-5.6,77,59,24,31.21,30.93,8,3,14,0.00
2013-11-25,32.7,27.5,19.0,16.9,10.8,6.7,63,50,35,30.94,30.46,8,3,17,0.00
2013-11-26,36.1,32.2,28.2,27.3,22.2,17.2,83,67,55,30.50,30.24,9,3,17,0.00
2013-11-27,28.2,23.7,19.4,23.2,15.2,9.6,83,70,49,30.66,30.27,14,6,24,0.00
2013-11-28,36.1,26.3,19.2,14.7,10.8,4.8,71,53,27,30.88,30.58,12,3,21,0.00
2013-11-29,37.8,26.8,16.7,20.6,15.6,11.6,82,64,40,31.12,30.87,7,2,9,0.00
2013-11-30,51.6,37.0,26.6,23.8,21.1,18.0,73,55,27,30.94,30.45,9,2,14,0.00
2013-12-1,49.3,39.7,33.4,32.3,26.8,20.8,81,60,45,30.45,30.22,8,2,12,0.00
2013-12-2,43.9,36.6,29.7,37.5,32.0,27.1,99,84,64,30.24,29.95,7,2,13,0.04
2013-12-3,50.4,42.9,36.0,49.1,42.2,35.7,99,97,93,30.06,29.92,9,3,17,0.01
2013-12-4,59.5,52.2,41.9,59.3,51.8,41.6,99,99,94,30.02,29.77,9,4,18,0.00
2013-12-5,58.8,36.8,23.5,57.1,31.7,17.8,97,82,66,30.55,29.84,14,7,23,0.00
2013-12-6,27.7,25.3,21.0,22.1,19.2,14.2,93,78,71,30.89,30.51,7,3,11,0.00
2013-12-7,25.9,19.0,12.4,14.6,10.1,7.2,80,68,50,31.13,30.88,7,2,11,0.00
2013-12-8,28.2,22.8,17.1,28.0,17.8,10.0,99,81,65,31.01,30.26,12,4,21,0.00
2013-12-9,28.9,24.1,18.0,28.7,17.7,6.1,99,77,58,30.58,30.24,17,7,28,0.00
2013-12-10,27.9,18.5,9.0,10.1,5.9,-0.4,72,58,41,30.74,30.43,16,6,30,0.00
2013-12-11,26.6,17.9,8.2,18.7,10.1,-0.4,78,71,60,31.01,30.66,13,3,22,0.00
2013-12-12,24.1,12.3,0.9,0.2,-5.7,-12.7,71,47,19,31.05,30.68,12,3,24,0.00
2013-12-13,33.1,24.4,15.3,30.0,10.8,-2.7,97,57,42,30.68,30.42,7,2,13,0.00
2013-12-14,34.0,30.4,23.9,33.7,29.8,21.2,99,98,90,30.45,29.89,14,1,14,0.00
2013-12-15,27.1,19.8,14.2,24.6,14.7,7.4,94,81,69,30.42,30.16,0,0,0,0.00
2013-12-16,26.2,19.4,14.2,26.0,16.0,10.5,99,86,72,30.46,30.26,0,0,0,0.00
2013-12-17,27.7,23.2,18.5,26.0,20.7,16.3,99,90,80,30.45,30.27,11,2,17,0.00
2013-12-18,33.1,24.8,13.8,17.0,13.3,8.2,83,63,42,30.63,30.25,11,5,21,0.02
2013-12-19,45.5,41.2,31.6,38.1,30.1,16.4,79,65,50,30.29,30.10,10,3,20,0.01
2013-12-20,57.6,50.5,44.4,57.3,48.9,37.7,99,94,75,30.11,29.92,11,4,21,0.26
2013-12-21,52.9,39.3,35.2,52.6,39.0,35.0,99,99,95,30.05,29.57,9,3,17,1.68
2013-12-22,42.4,36.8,31.1,42.2,35.9,29.1,99,96,91,30.38,29.39,15,6,34,0.04
2013-12-23,31.1,24.9,12.7,29.3,19.0,3.3,93,78,62,30.86,30.38,12,8,24,0.00
2013-12-24,19.6,11.7,3.9,10.3,3.6,-3.3,75,69,59,31.05,30.85,14,5,22,0.00
2013-12-25,28.6,23.6,17.1,22.9,14.1,9.4,79,67,59,30.90,30.46,13,4,21,0.00
2013-12-26,34.0,27.5,20.1,28.1,18.4,10.1,96,69,49,30.74,30.44,16,7,25,0.00
2013-12-27,37.9,37.6,37.2,29.0,28.0,26.2,70,68,64,30.59,30.53,13,7,14,0.00
2013-12-28,53.6,41.6,35.2,30.4,28.3,25.2,76,61,34,30.53,30.20,17,6,17,0.00
2013-12-29,43.5,35.4,25.9,32.3,27.0,21.9,99,73,56,30.36,29.98,22,8,22,0.00
2013-12-30,25.9,19.8,16.5,23.1,13.5,8.2,93,76,63,30.66,30.36,20,7,20,0.00
2013-12-31,27.1,20.8,15.6,17.6,11.9,7.5,82,68,53,30.78,30.49,21,8,21,0.00
2014-1-1,31.5,24.4,19.8,23.7,19.2,14.4,91,81,71,30.64,30.37,11,5,11,0.00
2014-1-2,122.5,14.8,2.7,99.9,9.2,-99.9,93,80,2,30.73,30.22,54,8,54,0.00